Wind_Speed
70 65 63 71 73 68 64 59 57 51 43 38 31 33 29 32 33 33 29 25 21 23 25 24 23 17 16 17 18 25 28 19 16 19 20 19 20 22 23 22 24 27 28 26
73 69 66 69 75 72 68 64 58 53 45 43 37 38 26 25 34 32 30 26 25 26 29 28 22 13 12 16 17 21 26 22 16 16 14 18 17 18 22 22 23 24 25 25
78 78 72 66 71 74 71 65 62 33 56 46 43 41 34 22 12 26 37 34 29 30 28 26 23 14 11 13 19 21 25 21 20 14 12 8 13 17 18 20 19 20 22 23
81 82 76 70 66 73 76 76 72 69 56 52 50 46 40 38 10 30 33 43 37 32 30 20 18 12 10 13 17 19 24 20 17 13 10 12 11 10 15 15 18 17 19 21
81 82 80 75 69 71 76 80 75 69 64 58 53 49 42 45 25 37 27 37 33 30 33 26 21 14 10 13 15 18 20 19 15 16 15 8 12 6 12 6 12 16 16 18
84 84 82 78 76 72 77 78 76 73 71 64 59 54 48 45 62 61 61 47 35 36 33 27 23 21 13 13 13 15 16 16 14 14 16 8 3 3 5 4 8 10 11 13
88 84 82 83 81 79 72 72 77 78 76 68 67 64 58 60 46 53 60 55 47 40 37 36 31 24 19 16 14 16 15 15 15 12 12 10 4 3 4 3 4 4 6 10
93 88 84 85 81 81 74 70 71 79 78 75 74 72 66 64 63 58 54 44 40 39 31 21 30 29 22 20 17 16 14 16 17 18 11 8 8 8 12 9 2 2 5 5
100 93 92 85 86 82 76 74 70 75 82 85 86 73 71 69 65 57 63 58 46 43 44 33 39 28 25 26 25 18 17 18 18 20 15 11 10 12 11 8 6 3 3 5
105 97 94 91 91 81 82 79 79 75 80 87 85 79 79 73 73 71 69 66 59 55 42 44 42 40 32 26 33 24 17 23 20 19 19 16 15 14 16 14 9 6 5 7
109 100 91 92 89 88 86 82 79 79 77 79 82 84 78 78 79 77 76 72 66 61 56 51 43 42 34 27 20 23 29 38 26 19 21 20 18 20 19 19 15 12 12 13
110 107 102 96 92 91 90 87 88 85 75 77 79 79 82 86 90 84 82 76 72 69 63 61 53 48 39 34 27 38 30 22 27 21 23 22 23 21 24 22 22 19 19 18
106 106 102 97 94 91 88 89 88 84 85 85 83 79 82 91 89 86 83 78 74 71 67 65 59 55 50 43 40 33 24 37 25 25 25 25 25 25 25 27 26 26 25 24
99 110 109 104 105 100 98 94 92 90 89 86 93 85 79 81 80 84 86 84 80 76 71 67 63 60 57 52 48 41 44 49 32 17 11 31 30 28 26 29 30 30 29 26
97 108 113 109 106 100 96 96 97 93 90 98 100 90 83 78 75 73 74 78 80 76 72 69 68 64 62 59 55 52 54 58 47 40 34 38 37 42 34 33 32 34 34 32
89 104 111 110 105 102 99 99 96 95 96 105 97 93 87 81 76 75 74 73 73 73 72 69 65 64 62 61 58 58 58 60 59 56 54 45 34 40 40 39 36 35 37 36
86 94 104 110 112 109 107 102 100 99 102 110 97 94 90 86 84 82 81 78 76 74 72 68 65 63 61 59 61 61 60 59 60 58 58 52 45 38 35 39 38 37 37 38
80 87 96 106 114 114 106 110 105 104 107 111 103 97 95 92 89 87 87 87 84 81 76 73 71 69 66 64 63 62 60 57 59 64 62 56 51 51 42 38 41 40 39 38
80 83 86 97 109 112 115 110 111 111 113 116 101 97 97 98 96 95 92 93 92 88 83 80 77 74 71 70 68 66 60 62 70 76 69 61 56 52 49 50 45 42 40 39
76 82 84 87 98 110 120 118 116 114 116 114 107 105 103 102 103 99 97 94 92 89 87 86 84 81 79 77 76 73 71 69 74 78 80 67 59 56 53 50 53 49 47 47
76 82 83 86 89 106 116 117 115 116 120 118 113 111 110 107 105 101 96 96 97 96 93 91 89 86 85 84 82 81 79 77 76 75 74 69 65 62 63 60 60 58 58 58
72 79 84 87 90 99 104 109 116 120 121 121 119 118 117 114 108 109 105 107 105 103 101 98 94 92 91 89 87 86 85 85 83 80 78 76 73 70 69 69 66 63 60 58
65 75 78 85 89 93 94 94 97 112 122 124 122 124 121 120 120 117 113 112 110 108 106 104 102 100 97 96 94 92 91 89 89 87 85 83 80 78 76 74 72 68 66 63
59 64 73 79 84 89 93 92 97 103 110 120 126 126 127 127 125 121 120 119 117 116 114 111 109 107 105 103 102 100 97 95 94 92 91 90 88 86 84 80 78 74 71 69
57 60 64 70 75 82 87 90 94 99 103 105 112 119 127 130 131 131 128 126 125 122 121 119 116 115 113 111 109 107 106 103 101 99 97 95 94 93 92 89 85 82 78 75
52 56 61 66 67 70 78 84 89 94 100 102 107 110 112 120 126 129 131 131 132 129 128 126 125 123 121 119 117 115 113 110 109 107 105 103 101 98 96 94 92 89 87 84
Wind_Direction
217 217 219 217 217 219 220 223 225 227 229 228 219 202 211 203 225 239 254 248 242 274 285 291 301 314 337 11 13 17 24 29 41 60 52 56 54 62 58 53 47 50 55 57
215 215 217 219 217 219 221 222 225 227 228 227 221 210 211 217 234 246 232 222 257 262 276 282 291 305 332 350 10 15 19 19 24 51 61 52 48 49 61 55 48 49 55 60
213 215 216 217 218 217 221 221 223 217 231 223 221 214 200 192 184 240 228 238 243 261 269 277 277 288 313 341 352 7 11 17 18 45 53 63 35 39 48 54 51 53 55 59
213 214 216 216 217 216 216 218 218 217 221 221 221 220 206 195 195 237 232 237 243 252 261 265 277 279 304 335 339 353 359 13 16 21 44 39 39 44 50 51 56 55 56 55
213 214 214 216 216 216 216 217 220 219 220 220 220 217 211 203 190 204 217 236 231 237 250 263 267 271 297 319 324 339 347 4 7 4 16 55 53 0 31 47 51 53 58 62
213 213 213 215 215 217 218 218 219 220 220 219 218 218 214 207 208 218 228 240 244 248 252 252 249 261 269 296 316 325 335 347 4 359 2 14 78 341 315 36 54 51 52 68
214 213 213 215 216 217 216 216 216 217 219 218 219 219 217 198 204 213 223 233 240 247 248 252 249 254 261 276 290 308 316 325 333 347 345 355 301 52 9 1 51 42 28 50
212 213 212 215 216 218 216 216 216 217 216 216 216 219 219 219 224 225 226 229 230 235 243 238 247 252 257 265 274 282 300 309 317 320 327 322 312 224 219 271 237 151 48 58
211 210 212 212 215 216 215 217 216 218 217 216 219 216 218 221 226 228 223 225 218 226 227 211 250 251 259 267 269 265 281 298 297 299 298 288 274 253 233 234 236 147 232 229
210 212 211 212 213 213 216 217 218 219 220 220 219 215 217 218 217 221 214 229 232 233 229 237 243 246 258 269 279 248 265 284 282 284 287 289 281 260 238 225 211 205 216 181
210 210 212 216 214 215 213 214 219 223 220 224 222 220 219 221 225 224 226 232 233 234 237 236 236 244 249 256 270 243 291 289 284 281 277 278 286 269 251 238 214 192 217 216
211 209 210 213 215 214 215 217 219 220 221 228 226 221 220 221 225 226 229 231 234 236 236 240 240 243 240 244 236 225 265 254 269 289 287 268 273 267 261 252 233 205 203 220
210 211 211 215 214 215 216 217 221 222 222 223 227 221 221 224 227 228 231 233 235 236 238 241 242 241 240 237 236 228 203 221 255 278 281 266 267 270 255 260 250 231 215 216
209 211 212 213 215 214 214 216 218 218 223 227 230 224 222 226 228 230 231 233 235 237 239 240 240 241 242 243 239 232 225 198 236 237 271 278 269 254 253 252 250 242 237 227
209 212 213 212 217 218 217 218 218 219 222 225 228 228 227 227 228 232 234 235 236 237 238 240 242 243 243 244 239 236 234 231 231 239 238 253 262 260 256 246 247 245 241 242
214 213 213 213 217 217 220 221 223 224 223 228 229 230 226 227 231 234 234 233 234 236 237 238 239 241 241 243 241 243 234 243 242 248 244 249 243 253 254 245 243 241 244 241
216 217 216 214 216 218 218 220 221 222 224 231 228 231 229 229 229 231 233 233 234 234 233 231 231 231 230 231 232 231 238 238 245 239 237 246 233 227 233 242 245 247 243 244
220 220 219 217 217 219 220 221 222 223 226 230 226 228 230 230 230 229 231 233 234 234 233 233 231 231 230 229 227 229 232 232 228 222 231 242 237 233 227 223 241 247 249 245
219 220 221 222 221 220 221 222 222 224 226 231 230 228 230 231 230 230 231 235 234 233 233 234 234 233 232 231 231 230 228 222 226 223 230 238 235 233 228 227 227 235 246 247
221 225 223 222 224 223 222 222 224 226 229 231 229 229 229 232 232 231 232 234 238 236 237 237 235 235 234 233 234 234 234 231 226 231 234 238 236 235 230 229 228 234 235 236
222 225 226 226 226 227 225 224 226 228 230 231 231 230 232 231 235 235 234 235 236 239 237 237 237 237 237 236 235 235 236 236 236 235 238 238 237 235 235 233 235 237 235 239
225 225 226 227 228 231 226 226 228 230 231 233 232 231 231 233 234 237 235 236 235 236 238 238 238 237 238 237 237 237 236 237 238 238 238 238 238 237 236 239 240 241 240 239
227 226 227 228 229 232 231 228 229 232 233 234 234 234 233 234 234 234 237 237 238 238 239 239 239 239 238 237 238 238 238 238 238 239 239 240 240 239 239 239 239 239 241 241
230 229 229 229 230 231 232 230 229 231 234 236 235 236 236 237 237 237 237 238 239 240 240 241 240 241 241 240 240 240 239 239 239 239 240 240 240 241 241 239 240 239 239 240
231 230 231 233 231 232 233 232 232 233 232 235 236 237 238 238 239 239 238 239 239 240 241 242 242 243 242 242 242 242 241 241 241 241 241 240 240 241 241 241 240 240 239 239
237 233 233 233 233 233 235 234 233 233 235 235 237 238 238 239 240 241 240 240 241 241 241 242 243 243 244 244 244 244 243 242 242 242 242 242 242 242 242 242 241 241 240 238
Height
10881 10893 10902 10909 10918 10930 10941 10952 10960 10969 10979 10986 10993 10997 10998 11004 11005 11006 11008 11011 11016 11020 11022 11024 11024 11023 11021 11021 11022 11021 11019 11016 11012 11011 11012 11010 11008 11006 11004 11005 11002 10996 10992 10990
10872 10882 10887 10896 10910 10923 10933 10943 10953 10967 10975 10981 10987 10991 10996 11000 11002 11004 11006 11009 11012 11017 11020 11023 11024 11024 11021 11021 11022 11023 11021 11019 11017 11016 11013 11012 11011 11009 11006 11005 11006 11004 11000 10998
10856 10862 10874 10885 10898 10915 10925 10936 10947 10967 10965 10974 10979 10983 10993 11000 11002 11001 11002 11002 11007 11013 11018 11021 11024 11024 11023 11022 11023 11024 11024 11021 11020 11018 11015 11014 11013 11013 11010 11008 11010 11010 11008 11004
10839 10850 10865 10876 10888 10900 10909 10913 10929 10942 10956 10962 10967 10977 10991 11002 11008 10997 10993 10992 11002 11008 11016 11020 11023 11025 11024 11024 11024 11025 11026 11024 11022 11022 11020 11018 11016 11018 11016 11016 11014 11015 11014 11010
10826 10839 10852 10865 10876 10885 10895 10900 10917 10931 10942 10953 10962 10970 10983 10997 10993 11000 10985 10990 11000 11006 11012 11018 11022 11024 11025 11023 11024 11024 11026 11026 11023 11022 11025 11025 11024 11021 11020 11021 11018 11018 11016 11015
10812 10822 10837 10850 10860 10870 10877 10894 10908 10922 10927 10945 10953 10962 10970 10981 10988 10989 10988 10990 10996 11001 11007 11011 11017 11020 11022 11022 11022 11023 11024 11027 11026 11023 11025 11028 11026 11021 11020 11017 11019 11022 11022 11019
10794 10811 10824 10831 10844 10853 10871 10880 10894 10906 10918 10935 10940 10949 10961 10963 10972 10980 10984 10988 10991 10997 11003 11007 11011 11014 11019 11020 11020 11020 11022 11025 11027 11027 11026 11029 11027 11024 11018 11018 11021 11025 11027 11026
10777 10792 10807 10817 10835 10841 10861 10870 10882 10889 10905 10915 10922 10935 10948 10954 10960 10971 10972 10978 10986 10993 10996 11003 11005 11008 11012 11014 11015 11015 11016 11020 11023 11026 11027 11029 11027 11026 11022 11024 11026 11032 11032 11021
10758 10775 10782 10807 10810 10833 10849 10859 10866 10870 10884 10890 10897 10927 10934 10942 10949 10956 10959 10968 10978 10985 10993 10994 10997 11004 11006 11007 11008 11011 11011 11013 11015 11020 11023 11026 11028 11025 11024 11025 11032 11034 11021 11017
10738 10763 10774 10784 10795 10821 10831 10839 10845 10856 10865 10873 10895 10908 10915 10923 10929 10938 10944 10954 10965 10974 10982 10991 10995 10995 11000 11002 11001 11003 11004 11007 11008 11012 11018 11022 11025 11025 11024 11025 11032 11030 11020 11014
10722 10748 10771 10774 10791 10801 10812 10821 10834 10842 10851 10857 10881 10896 10911 10913 10918 10924 10933 10943 10955 10964 10973 10977 10986 10989 10996 10998 10997 10992 11001 11002 11004 11007 11011 11015 11018 11020 11019 11020 11027 11032 11020 11017
10706 10727 10742 10757 10772 10783 10796 10810 10814 10827 10845 10846 10859 10879 10890 10892 10887 10907 10917 10930 10939 10950 10959 10963 10976 10980 10989 10992 10997 11003 11007 10997 11002 11003 11004 11008 11010 11013 11014 11014 11018 11027 11028 11023
10702 10721 10734 10748 10760 10773 10789 10795 10803 10823 10821 10824 10828 10853 10865 10867 10878 10894 10905 10918 10927 10936 10946 10952 10961 10970 10976 10984 10991 11002 10999 10990 11003 11003 11002 11002 11005 11007 11009 11009 11010 11014 11020 11021
10685 10694 10709 10725 10726 10747 10759 10774 10788 10798 10803 10817 10804 10838 10849 10856 10864 10875 10890 10902 10913 10922 10932 10938 10946 10954 10963 10971 10982 10994 10999 10993 10994 10996 11002 11000 11002 11002 11004 11004 11004 11006 11010 11014
10663 10677 10690 10707 10720 10741 10756 10764 10769 10784 10794 10782 10781 10815 10835 10848 10858 10867 10878 10890 10900 10908 10917 10925 10931 10939 10948 10957 10967 10975 10980 10981 10983 10986 10994 11002 11000 11000 11000 11000 10999 11001 11002 11004
10652 10660 10675 10701 10714 10728 10739 10747 10763 10772 10775 10754 10780 10798 10823 10835 10846 10853 10863 10873 10882 10892 10901 10912 10918 10924 10933 10940 10947 10956 10963 10966 10972 10976 10982 10987 10992 10992 10994 10995 10995 10995 10996 10998
10637 10646 10662 10679 10690 10699 10713 10728 10739 10746 10748 10730 10775 10783 10801 10815 10826 10835 10844 10853 10862 10873 10884 10895 10903 10909 10915 10924 10931 10939 10946 10953 10958 10964 10968 10974 10979 10981 10985 10988 10991 10992 10992 10992
10627 10634 10646 10659 10667 10680 10700 10704 10721 10728 10724 10715 10754 10772 10781 10795 10807 10814 10822 10831 10842 10853 10865 10876 10886 10894 10900 10908 10915 10922 10930 10937 10940 10947 10953 10960 10965 10970 10974 10976 10981 10984 10984 10986
10611 10617 10627 10639 10648 10667 10674 10688 10693 10697 10697 10691 10742 10760 10764 10769 10780 10790 10801 10807 10819 10832 10846 10857 10866 10877 10886 10892 10900 10907 10915 10923 10927 10932 10938 10945 10951 10955 10960 10964 10966 10969 10974 10977
10597 10602 10613 10620 10630 10641 10639 10662 10671 10682 10682 10691 10720 10732 10743 10749 10754 10770 10781 10793 10804 10817 10827 10836 10847 10857 10866 10875 10882 10891 10899 10908 10915 10919 10925 10931 10935 10940 10945 10948 10953 10958 10960 10963
10578 10583 10594 10602 10610 10606 10628 10649 10656 10659 10661 10679 10696 10711 10717 10729 10741 10755 10770 10777 10781 10789 10801 10813 10825 10836 10844 10853 10863 10872 10880 10888 10894 10901 10906 10912 10918 10924 10929 10934 10939 10943 10948 10952
10559 10565 10573 10582 10590 10585 10609 10632 10634 10644 10646 10652 10670 10682 10692 10707 10725 10724 10739 10742 10754 10764 10774 10787 10801 10811 10820 10831 10840 10848 10857 10864 10872 10880 10887 10893 10899 10906 10912 10917 10922 10927 10932 10936
10541 10546 10556 10562 10570 10576 10593 10610 10616 10615 10622 10631 10647 10656 10675 10680 10684 10699 10715 10721 10729 10740 10751 10762 10772 10783 10795 10804 10813 10823 10833 10841 10849 10857 10864 10871 10879 10886 10892 10898 10904 10911 10916 10921
10524 10530 10535 10542 10549 10558 10566 10583 10588 10590 10599 10609 10623 10631 10645 10653 10665 10679 10691 10696 10705 10713 10724 10735 10745 10755 10766 10777 10787 10796 10806 10816 10824 10832 10840 10849 10856 10863 10870 10879 10885 10892 10899 10905
10507 10514 10518 10522 10533 10539 10544 10556 10565 10571 10580 10584 10591 10605 10614 10625 10635 10645 10659 10669 10676 10687 10696 10705 10716 10725 10736 10746 10757 10767 10778 10789 10798 10806 10815 10823 10832 10839 10847 10855 10863 10871 10879 10886
10493 10497 10502 10505 10513 10522 10523 10531 10539 10547 10551 10562 10566 10577 10587 10594 10603 10614 10626 10640 10648 10656 10664 10676 10685 10695 10705 10715 10725 10735 10747 10758 10768 10777 10787 10796 10805 10814 10822 10831 10840 10849 10856 10863